Regional Weather Roundup
Issued by NWS Kansas City/Pleasant Hill, MO

Home | Current Version | Previous Version | Graphics & Text | Print | Product List | Glossary Off
Versions: 1 2 3 4 5 6 7 8 9 10 11 12 13 14 15 16 17 18 19 20 21 22 23 24 25 26 27 28 29 30 31 32 33 34 35 36 37 38 39 40 41 42 43 44 45 46 47 48 49 50

838
ASUS43 KEAX 212210
RWREAX

WEATHER ROUNDUP FOR EASTERN KANSAS AND NORTHWEST MISSOURI
NATIONAL WEATHER SERVICE KANSAS CITY/PLEASANT HILL MO
400 PM CST WED FEB 21 2018

KSZ040-057-103>105-MOZ028-029-037-043-212300-
...KANSAS CITY METROPOLITAN AREA...

CITY           SKY/WX    TMP DP  RH WIND       PRES   REMARKS
K.C. INTL      CLOUDY    26  21  81 NE13      30.50S WCI  15
K.C. DOWNTOWN  CLOUDY    29  21  72 N12       30.51S WCI  19
LEES SUMMIT    CLOUDY    27  23  85 NE10      30.50S WCI  17
OLATHE - IXD   CLOUDY    27  22  81 NE10      30.49S WCI  17
OLATHE - OJC   CLOUDY    26  21  81 NE9       30.48S WCI  17
LAWRENCE       PTSUNNY   27  21  78 NE13      30.51F WCI  16

$$

MOZ001>008-011>017-020>025-030>033-038>040-044>046-053-054-212300-
...NORTHERN AND CENTRAL MISSOURI...

CITY           SKY/WX    TMP DP  RH WIND       PRES   REMARKS
ST. JOSEPH     FAIR      28  22  78 NE13      30.53F WCI  17
MOSBY          CLOUDY    28  23  80 NE9       30.53S WCI  20
WARRENSBURG    FAIR      28  23  80 N7        30.52R WCI  21
WHITEMAN AFB   PTSUNNY   29  20  69 NE12      30.46R WCI  19
CLINTON        CLOUDY    28  23  80 CALM      30.49R
SEDALIA        FAIR      30  25  81 NE10      30.50F WCI  21
WARSAW         NOT AVBL
CHILLICOTHE      N/A     29  22  75 NE12      30.56S WCI  19
KIRKSVILLE     FAIR      28  20  71 NE15      30.54F WCI  16

$$

MOZ041-047>049-056>058-063>065-088>090-097-212300-
...EASTERN AND SOUTHERN MISSOURI...

CITY           SKY/WX    TMP DP  RH WIND       PRES   REMARKS
ST. LOUIS INTL CLOUDY    30  27  88 N10       30.50R WCI  21
SPIRIT OF STL  CLOUDY    30  26  85 NE10      30.50R WCI  21
COLUMBIA       PTSUNNY   29  24  82 NE13      30.49R WCI  19
JEFFERSON CITY CLOUDY    29  24  82 NE7       30.52R WCI  22
ROLLA          CLOUDY    26  25  96 NE13      30.45S WCI  15
OSAGE BEACH    CLOUDY    27  25  92 NE8       30.46F FOG     WCI  19
SPRINGFIELD    CLOUDY    29  26  89 NE13      30.40R WCI  19
BRANSON        FOG       28  28 100 NE6       30.39R VSB 3/4 WCI  22
JOPLIN         CLOUDY    28  26  92 NE14G20   30.44R WCI  17
WEST PLAINS    CLOUDY    31  29  92 N12       30.38R FOG     WCI  22

$$

IAZ060-094-KSZ022-034>040-054-083-096-NEZ052-066-093-212300-
...KANSAS...SOUTHEAST NEBRASKA AND IOWA...

CITY           SKY/WX    TMP DP  RH WIND       PRES   REMARKS
TOPEKA         CLOUDY    27  20  75 N10       30.51S WCI  17
MANHATTAN      CLOUDY    29  16  58 NE10      30.50S WCI  20
EMPORIA        CLOUDY    24  18  77 N12       30.46F WCI  13
CHANUTE        CLOUDY    29  24  82 NE12      30.45R WCI  19
WICHITA        CLOUDY    28  19  69 NE16      30.41S WCI  16
OMAHA          PTSUNNY   26  12  55 NE9       30.57F WCI  17
LINCOLN        FAIR      27   9  46 NE12      30.54F WCI  17
FALLS CITY     FAIR      27  16  63 NE9       30.53F WCI  18
LAMONI         FAIR      26  20  77 NE15      30.54S WCI  14
DES MOINES     CLOUDY    26  16  65 N10       30.60R WCI  16

$$





USA.gov is the U.S. government's official web portal to all federal, state and local government web resources and services.